FW7740 Weather Reports


Display with metric or nautical units.
time (UTC)temp
F
wind
direction
speed
MPH
gust
MPH
rain 1hr
in
rain 24hr
in
rain mn
in
humidity
%
barometer
mb
20260902191120 102 230 3.0 3.0 0.00 0.00 0.00 34 1017.0
20260902190616 102 282 1.0 1.0 0.00 0.00 0.00 34 1017.0
20260902190111 101 304 0.0 0.0 0.00 0.00 0.00 35 1017.0
20260902185606 100 21 2.0 2.0 0.00 0.00 0.00 34 1017.3
20260902185102 98 318 0.0 0.0 0.00 0.00 0.00 38 1017.3
20260902184557 98 284 0.0 0.0 0.00 0.00 0.00 39 1017.3
20260902184052 99 336 1.0 1.0 0.00 0.00 0.00 39 1017.3
20260902183549 100 58 5.0 7.0 0.00 0.00 0.00 37 1017.3
20260902183045 100 171 2.0 2.0 0.00 0.00 0.00 37 1017.3
20260902182541 99 132 3.0 2.0 0.00 0.00 0.00 37 1017.3
20260902182037 99 143 3.0 6.0 0.00 0.00 0.00 38 1017.3
20260902181533 100 187 6.0 8.0 0.00 0.00 0.00 37 1017.6
20260902181026 98 334 4.0 6.0 0.00 0.00 0.00 37 1017.6
20260902180521 97 323 0.0 0.0 0.00 0.00 0.00 40 1018.1
20260902180017 97 333 1.0 1.0 0.00 0.00 0.00 39 1017.6
20260902175516 96 40 0.0 0.0 0.00 0.00 0.00 41 1018.1
20260902175013 97 326 0.0 0.0 0.00 0.00 0.00 42 1018.1
20260902174509 97 288 1.0 1.0 0.00 0.00 0.00 39 1018.1
20260902174004 97 250 2.0 2.0 0.00 0.00 0.00 40 1018.1
20260902173504 96 171 3.0 5.0 0.00 0.00 0.00 42 1018.1
20260902172959 96 137 3.0 3.0 0.00 0.00 0.00 42 1018.1
20260902172458 97 161 6.0 7.0 0.00 0.00 0.00 41 1018.4
20260902171954 97 182 2.0 3.0 0.00 0.00 0.00 40 1018.8
20260902171449 98 175 3.0 3.0 0.00 0.00 0.00 40 1018.8
20260902170944 99 179 4.0 5.0 0.00 0.00 0.00 40 1018.8
20260902170439 98 157 2.0 2.0 0.00 0.00 0.00 40 1018.8
20260902165930 97 35 4.0 5.0 0.00 0.00 0.00 40 1018.8
20260902165428 97 64 4.0 5.0 0.00 0.00 0.00 41 1018.8
20260902164923 96 161 3.0 3.0 0.00 0.00 0.00 42 1019.1
20260902164418 96 157 4.0 5.0 0.00 0.00 0.00 42 1019.1
20260902163917 96 133 5.0 6.0 0.00 0.00 0.00 42 1019.1
20260902163412 97 158 2.0 2.0 0.00 0.00 0.00 41 1018.8
20260902162910 97 146 3.0 2.0 0.00 0.00 0.00 41 1019.1
20260902162406 96 7 1.0 2.0 0.00 0.00 0.00 42 1019.1
20260902161900 96 10 2.0 2.0 0.00 0.00 0.00 43 1019.1
20260902161355 96 72 4.0 6.0 0.00 0.00 0.00 43 1019.1
20260902160851 96 163 3.0 3.0 0.00 0.00 0.00 44 1019.1
20260902160347 96 297 1.0 1.0 0.00 0.00 0.00 44 1019.1
20260902155845 96 288 1.0 1.0 0.00 0.00 0.00 44 1019.1
20260902155344 95 170 5.0 5.0 0.00 0.00 0.00 44 1019.1
20260902154839 95 3 1.0 1.0 0.00 0.00 0.00 45 1019.4
20260902154335 96 165 3.0 5.0 0.00 0.00 0.00 44 1019.1
20260902153833 95 27 2.0 2.0 0.00 0.00 0.00 45 1019.4
20260902153333 95 102 1.0 2.0 0.00 0.00 0.00 45 1019.8
20260902152829 95 294 2.0 2.0 0.00 0.00 0.00 45 1019.1
20260902152325 94 177 1.0 2.0 0.00 0.00 0.00 46 1019.1
20260902151820 94 10 0.0 0.0 0.00 0.00 0.00 47 1019.4
20260902151315 94 254 2.0 2.0 0.00 0.00 0.00 47 1019.4
20260902150810 93 177 1.0 1.0 0.00 0.00 0.00 47 1019.1
20260902150306 93 312 1.0 1.0 0.00 0.00 0.00 49 1019.1
20260902145805 93 138 2.0 2.0 0.00 0.00 0.00 48 1019.1
20260902145301 93 340 0.0 0.0 0.00 0.00 0.00 48 1019.1
20260902144756 93 259 2.0 2.0 0.00 0.00 0.00 48 1019.4
20260902144252 92 2 1.0 1.0 0.00 0.00 0.00 49 1019.1
20260902143746 91 329 0.0 0.0 0.00 0.00 0.00 52 1019.1
20260902143242 90 114 2.0 2.0 0.00 0.00 0.00 53 1019.1
20260902142737 89 182 1.0 1.0 0.00 0.00 0.00 55 1019.1
20260902142233 89 167 2.0 2.0 0.00 0.00 0.00 54 1019.1
20260902141732 89 260 1.0 1.0 0.00 0.00 0.00 54 1019.1
20260902141229 88 174 3.0 2.0 0.00 0.00 0.00 57 1019.1
20260902140723 87 175 4.0 5.0 0.00 0.00 0.00 56 1019.1
20260902140218 88 357 0.0 0.0 0.00 0.00 0.00 58 1019.1
20260902135718 88 189 3.0 2.0 0.00 0.00 0.00 58 1019.1
20260902135214 88 3 0.0 0.0 0.00 0.00 0.00 57 1019.1
20260902134713 86 270 1.0 1.0 0.00 0.00 0.00 59 1019.1
20260902134209 86 273 0.0 1.0 0.00 0.00 0.00 61 1019.1
20260902133703 84 273 0.0 0.0 0.00 0.00 0.00 64 1019.1
20260902133203 83 268 0.0 0.0 0.00 0.00 0.00 67 1019.1
20260902132658 82 184 2.0 2.0 0.00 0.00 0.00 70 1019.1
20260902132153 81 269 0.0 0.0 0.00 0.00 0.00 71 1019.1
20260902131649 80 301 0.0 0.0 0.00 0.00 0.00 73 1019.1
20260902131145 79 302 0.0 0.0 0.00 0.00 0.00 73 1019.1
20260902130640 78 302 0.0 0.0 0.00 0.00 0.00 74 1019.1
20260902130135 78 302 0.0 0.0 0.00 0.00 0.00 76 1019.4
20260902125631 78 302 0.0 0.0 0.00 0.00 0.00 75 1019.1
20260902125126 77 302 0.0 0.0 0.00 0.00 0.00 78 1019.1
20260902124623 75 302 0.0 0.0 0.00 0.00 0.00 80 1019.4
20260902124122 74 302 0.0 0.0 0.00 0.00 0.00 82 1019.1
20260902123619 73 302 0.0 0.0 0.00 0.00 0.00 86 1019.4
20260902123113 72 302 0.0 0.0 0.00 0.00 0.00 87 1019.1
20260902122613 71 302 0.0 0.0 0.00 0.00 0.00 88 1019.1
20260902122108 71 302 0.0 0.0 0.00 0.00 0.00 89 1019.1
20260902121603 71 302 0.0 0.0 0.00 0.00 0.00 89 1018.8
20260902121058 71 302 0.0 0.0 0.00 0.00 0.00 89 1019.1
20260902120554 71 302 0.0 0.0 0.00 0.00 0.00 89 1019.1
20260902120050 71 302 0.0 0.0 0.00 0.00 0.00 89 1018.8
20260902115545 71 302 0.0 0.0 0.00 0.00 0.00 90 1018.8
20260902115041 71 302 0.0 0.0 0.00 0.00 0.00 90 1018.4
20260902114537 71 302 0.0 0.0 0.00 0.00 0.00 90 1018.4
20260902114037 71 302 0.0 0.0 0.00 0.00 0.00 91 1018.8
20260902113532 71 302 0.0 0.0 0.00 0.00 0.00 91 1018.4
20260902113027 71 302 0.0 0.0 0.00 0.00 0.00 91 1018.4
20260902112523 71 302 0.0 0.0 0.00 0.00 0.00 91 1018.4
20260902112019 71 302 0.0 0.0 0.00 0.00 0.00 91 1018.4
20260902111515 71 302 0.0 0.0 0.00 0.00 0.00 90 1018.4
20260902111010 71 302 0.0 0.0 0.00 0.00 0.00 90 1018.1
20260902110507 71 302 0.0 0.0 0.00 0.00 0.00 90 1018.4
20260902110001 71 302 0.0 0.0 0.00 0.00 0.00 90 1018.4
20260902105456 71 302 0.0 0.0 0.00 0.00 0.00 90 1018.4
20260902104951 71 302 0.0 0.0 0.00 0.00 0.00 90 1018.4
20260902104447 71 302 0.0 0.0 0.00 0.00 0.00 90 1018.1
20260902103947 71 302 0.0 0.0 0.00 0.00 0.00 90 1018.4
20260902103442 71 314 0.0 0.0 0.00 0.00 0.00 90 1018.1
20260902102937 71 314 0.0 0.0 0.00 0.00 0.00 89 1018.1
20260902102434 71 314 0.0 0.0 0.00 0.00 0.00 89 1018.1
20260902101930 71 314 0.0 0.0 0.00 0.00 0.00 89 1018.1
20260902101424 71 314 0.0 0.0 0.00 0.00 0.00 88 1018.4
20260902100923 71 315 0.0 0.0 0.00 0.00 0.00 89 1018.1
20260902100418 71 312 0.0 0.0 0.00 0.00 0.00 89 1018.1
20260902095912 71 312 0.0 0.0 0.00 0.00 0.00 90 1018.1
20260902095407 71 312 0.0 0.0 0.00 0.00 0.00 89 1018.4
20260902094901 71 312 0.0 0.0 0.00 0.00 0.00 89 1018.1
20260902094357 71 312 0.0 0.0 0.00 0.00 0.00 89 1018.1
20260902093856 71 312 0.0 0.0 0.00 0.00 0.00 89 1018.1
20260902093352 71 312 0.0 0.0 0.00 0.00 0.00 89 1018.1
20260902092850 71 312 0.0 0.0 0.00 0.00 0.00 89 1018.1
20260902092346 71 312 0.0 0.0 0.00 0.00 0.00 89 1018.1
20260902091841 71 312 0.0 0.0 0.00 0.00 0.00 89 1018.1
20260902091336 71 312 0.0 0.0 0.00 0.00 0.00 88 1018.1
20260902090833 71 312 0.0 0.0 0.00 0.00 0.00 88 1018.1
20260902090332 71 312 0.0 0.0 0.00 0.00 0.00 88 1018.1
20260902085831 71 312 0.0 0.0 0.00 0.00 0.00 88 1017.6
20260902085327 71 312 0.0 0.0 0.00 0.00 0.00 88 1017.6
20260902084822 71 312 0.0 0.0 0.00 0.00 0.00 88 1017.6
20260902084319 71 312 0.0 0.0 0.00 0.00 0.00 88 1018.1
20260902083814 71 312 0.0 0.0 0.00 0.00 0.00 88 1018.1
20260902083313 71 312 0.0 0.0 0.00 0.00 0.00 88 1017.6
20260902082809 71 312 0.0 0.0 0.00 0.00 0.00 88 1018.1
20260902082309 71 312 0.0 0.0 0.00 0.00 0.00 88 1018.1
20260902081801 71 312 0.0 0.0 0.00 0.00 0.00 88 1018.1
20260902081256 71 312 0.0 0.0 0.00 0.00 0.00 88 1018.1
20260902080751 72 312 0.0 0.0 0.00 0.00 0.00 88 1017.6
20260902080249 72 312 0.0 0.0 0.00 0.00 0.00 87 1017.6
20260902075747 72 312 0.0 0.0 0.00 0.00 0.00 86 1018.1
20260902075244 72 312 0.0 0.0 0.00 0.00 0.00 86 1018.1
20260902074744 73 312 0.0 0.0 0.00 0.00 0.00 85 1017.6
20260902074239 73 312 0.0 0.0 0.00 0.00 0.00 86 1017.6
20260902073734 73 312 0.0 0.0 0.00 0.00 0.00 86 1018.1
20260902073230 73 312 0.0 0.0 0.00 0.00 0.00 86 1017.6
20260902072726 73 312 0.0 0.0 0.00 0.00 0.00 86 1018.1
20260902072222 73 312 0.0 0.0 0.00 0.00 0.00 86 1018.1
20260902071718 73 312 0.0 0.0 0.00 0.00 0.00 86 1017.6
20260902071213 73 312 0.0 0.0 0.00 0.00 0.00 86 1018.1
20260902070710 73 312 0.0 0.0 0.00 0.00 0.00 86 1018.1
20260902070209 73 312 0.0 0.0 0.00 0.00 0.00 85 1017.6
20260902065708 73 312 0.0 0.0 0.00 0.00 0.00 85 1017.6
20260902065204 73 312 0.0 0.0 0.00 0.00 0.00 85 1018.1
20260902064659 73 312 0.0 0.0 0.00 0.00 0.00 85 1017.6
20260902064155 73 312 0.0 0.0 0.00 0.00 0.00 85 1017.6
20260902063650 73 312 0.0 0.0 0.00 0.00 0.00 85 1018.1
20260902063149 73 312 0.0 0.0 0.00 0.00 0.00 85 1017.6
20260902062649 73 312 0.0 0.0 0.00 0.00 0.00 84 1018.1
20260902062144 73 312 0.0 0.0 0.00 0.00 0.00 84 1018.1
20260902061643 73 312 0.0 0.0 0.00 0.00 0.00 85 1017.6
20260902061139 73 312 0.0 0.0 0.00 0.00 0.00 85 1017.6
20260902060636 73 312 0.0 0.0 0.00 0.00 0.00 85 1018.1
20260902060132 73 312 0.0 0.0 0.00 0.00 0.00 85 1017.6
20260902055627 73 312 0.0 0.0 0.00 0.00 0.00 85 1017.6
20260902055122 73 312 0.0 0.0 0.00 0.00 0.00 85 1017.6
20260902054617 73 312 0.0 0.0 0.00 0.00 0.00 84 1017.3
20260902054114 73 312 0.0 0.0 0.00 0.00 0.00 84 1017.3
20260902053608 73 312 0.0 0.0 0.00 0.00 0.00 85 1017.6
20260902053103 73 312 0.0 0.0 0.00 0.00 0.00 85 1017.6
20260902052557 73 312 0.0 0.0 0.00 0.00 0.00 85 1017.3
20260902052053 73 312 0.0 0.0 0.00 0.00 0.00 85 1017.6
20260902051552 73 312 0.0 0.0 0.00 0.00 0.00 85 1017.3
20260902051052 73 312 0.0 0.0 0.00 0.00 0.00 85 1017.3
20260902050546 73 312 0.0 0.0 0.00 0.00 0.00 85 1017.3
20260902050042 73 312 0.0 0.0 0.00 0.00 0.00 85 1017.3
20260902045537 73 312 0.0 0.0 0.00 0.00 0.00 85 1017.6
20260902045033 73 312 0.0 0.0 0.00 0.00 0.00 85 1017.6
20260902044533 73 312 0.0 0.0 0.00 0.00 0.00 84 1017.3
20260902044028 73 312 0.0 0.0 0.00 0.00 0.00 84 1017.3
20260902043524 73 312 0.0 0.0 0.00 0.00 0.00 84 1017.3
20260902043024 74 312 0.0 0.0 0.00 0.00 0.00 84 1017.3
20260902042524 74 312 0.0 0.0 0.00 0.00 0.00 83 1017.3
20260902042020 74 312 0.0 0.0 0.00 0.00 0.00 83 1017.3
20260902041519 74 312 0.0 0.0 0.00 0.00 0.00 82 1017.3
20260902041014 74 312 0.0 0.0 0.00 0.00 0.00 82 1017.3
20260902040514 75 312 0.0 0.0 0.00 0.00 0.00 82 1017.3
20260902040014 75 312 0.0 0.0 0.00 0.00 0.00 82 1017.3
20260902035508 75 312 0.0 0.0 0.00 0.00 0.00 82 1017.0
20260902035004 75 312 0.0 0.0 0.00 0.00 0.00 81 1017.0
20260902034502 75 312 0.0 0.0 0.00 0.00 0.00 81 1017.3
20260902033956 75 312 0.0 0.0 0.00 0.00 0.00 81 1017.3
20260902033456 75 312 0.0 0.0 0.00 0.00 0.00 81 1017.3
20260902032955 75 312 0.0 0.0 0.00 0.00 0.00 80 1017.3
20260902032449 75 312 0.0 0.0 0.00 0.00 0.00 80 1017.0
20260902031944 75 312 0.0 0.0 0.00 0.00 0.00 80 1017.0
20260902031434 76 312 0.0 0.0 0.00 0.00 0.00 79 1017.0
20260902030930 76 312 0.0 0.0 0.00 0.00 0.00 78 1017.3
20260902030424 76 312 0.0 0.0 0.00 0.00 0.00 78 1017.0
20260902025923 76 312 0.0 0.0 0.00 0.00 0.00 78 1017.0
20260902025419 76 312 0.0 0.0 0.00 0.00 0.00 77 1017.0
20260902024914 77 312 0.0 0.0 0.00 0.00 0.00 77 1017.0
20260902024409 77 312 0.0 0.0 0.00 0.00 0.00 76 1017.0
20260902023904 77 312 0.0 0.0 0.00 0.00 0.00 76 1016.6
20260902023400 77 312 0.0 0.0 0.00 0.00 0.00 76 1016.6
20260902022859 77 312 0.0 0.0 0.00 0.00 0.00 75 1016.6
20260902022348 77 312 0.0 0.0 0.00 0.00 0.00 75 1017.0
20260902021845 78 312 0.0 0.0 0.00 0.00 0.00 74 1016.3
20260902021339 78 312 0.0 0.0 0.00 0.00 0.00 74 1016.6
20260902020835 78 312 0.0 0.0 0.00 0.00 0.00 73 1016.6
20260902020331 78 312 0.0 0.0 0.00 0.00 0.00 72 1016.3
20260902015826 79 312 0.0 0.0 0.00 0.00 0.00 72 1016.3
20260902015322 79 312 0.0 0.0 0.00 0.00 0.00 72 1016.3
20260902014817 79 312 0.0 0.0 0.00 0.00 0.00 70 1016.3
20260902014314 80 312 0.0 0.0 0.00 0.00 0.00 70 1016.3
20260902013812 80 312 0.0 0.0 0.00 0.00 0.00 69 1016.3
20260902013308 80 312 0.0 0.0 0.00 0.00 0.00 68 1016.3
20260902012803 80 312 0.0 0.0 0.00 0.00 0.00 68 1015.9
20260902012259 81 312 0.0 0.0 0.00 0.00 0.00 66 1015.9
20260902011755 81 312 0.0 0.0 0.00 0.00 0.00 66 1015.9
20260902011254 82 312 0.0 0.0 0.00 0.00 0.00 64 1015.9
20260902010753 82 312 0.0 0.0 0.00 0.00 0.00 64 1015.9
20260902010249 82 312 0.0 0.0 0.00 0.00 0.00 64 1015.6
20260902005747 83 312 0.0 0.0 0.00 0.00 0.00 63 1015.9
20260902005243 84 312 0.0 0.0 0.00 0.00 0.00 61 1015.9
20260902004742 84 312 0.0 0.0 0.00 0.00 0.00 60 1015.9
20260902004238 84 312 0.0 0.0 0.00 0.00 0.00 59 1015.6
20260902003727 85 313 0.0 0.0 0.00 0.00 0.00 58 1015.9
20260902003223 86 313 0.0 0.0 0.00 0.00 0.00 56 1016.3
20260902002718 86 313 0.0 0.0 0.00 0.00 0.00 54 1016.3
20260902002212 87 313 0.0 0.0 0.00 0.00 0.00 52 1016.3
20260902001708 88 313 0.0 0.0 0.00 0.00 0.00 51 1015.9
20260902001207 88 313 0.0 0.0 0.00 0.00 0.00 50 1015.9
20260902000702 89 313 0.0 0.0 0.00 0.00 0.00 48 1016.3
20260902000157 90 313 0.0 0.0 0.00 0.00 0.00 46 1016.3
20260901235656 90 313 0.0 0.0 0.00 0.00 0.00 45 1015.9
20260901235153 91 313 0.0 0.0 0.00 0.00 0.00 43 1016.3
20260901234652 92 313 0.0 0.0 0.00 0.00 0.00 41 1016.3
20260901234147 93 314 0.0 0.0 0.00 0.00 0.00 39 1016.3
20260901233642 93 314 0.0 0.0 0.00 0.00 0.00 39 1016.3
20260901233138 94 314 0.0 0.0 0.00 0.00 0.00 38 1016.3
20260901232638 94 316 0.0 0.0 0.00 0.00 0.00 39 1016.6
20260901232133 94 316 0.0 0.0 0.00 0.00 0.00 38 1016.3
20260901231630 95 319 0.0 0.0 0.00 0.00 0.00 37 1016.3
20260901231126 95 307 0.0 0.0 0.00 0.00 0.00 37 1016.3
20260901230621 95 307 0.0 0.0 0.00 0.00 0.00 37 1016.3
20260901230116 95 307 0.0 0.0 0.00 0.00 0.00 37 1016.3
20260901225611 95 302 1.0 1.0 0.00 0.00 0.00 37 1016.3
20260901225111 95 158 3.0 5.0 0.00 0.00 0.00 37 1016.3
20260901224607 95 319 0.0 0.0 0.00 0.00 0.00 36 1016.3
20260901224103 95 319 0.0 0.0 0.00 0.00 0.00 37 1016.3
20260901223558 95 285 0.0 0.0 0.00 0.00 0.00 37 1016.3
20260901223053 95 285 0.0 0.0 0.00 0.00 0.00 37 1016.3
20260901222549 95 286 0.0 0.0 0.00 0.00 0.00 37 1016.3
20260901222044 96 285 0.0 0.0 0.00 0.00 0.00 36 1016.3
20260901221540 96 285 0.0 0.0 0.00 0.00 0.00 36 1016.3
20260901221035 97 317 0.0 0.0 0.00 0.00 0.00 35 1016.3
20260901220535 96 287 0.0 1.0 0.00 0.00 0.00 35 1015.9
20260901220034 97 318 1.0 1.0 0.00 0.00 0.00 35 1016.3
20260901215532 97 296 0.0 0.0 0.00 0.00 0.00 35 1016.3
20260901215026 98 318 0.0 0.0 0.00 0.00 0.00 34 1016.3
20260901214525 99 156 2.0 2.0 0.00 0.00 0.00 31 1016.3
20260901214020 99 291 1.0 1.0 0.00 0.00 0.00 32 1016.3
20260901213519 100 305 0.0 0.0 0.00 0.00 0.00 33 1016.6
20260901213014 100 285 1.0 1.0 0.00 0.00 0.00 32 1016.3
20260901212508 101 333 1.0 1.0 0.00 0.00 0.00 30 1016.3
20260901212005 102 177 2.0 2.0 0.00 0.00 0.00 29 1016.3
20260901211500 101 298 1.0 1.0 0.00 0.00 0.00 30 1016.6
20260901210956 101 139 4.0 6.0 0.00 0.00 0.00 30 1016.6
20260901210447 101 248 2.0 2.0 0.00 0.00 0.00 31 1016.6
20260901205942 101 195 1.0 2.0 0.00 0.00 0.00 30 1016.6
20260901205437 101 225 3.0 3.0 0.00 0.00 0.00 30 1017.0
20260901204931 101 128 3.0 2.0 0.00 0.00 0.00 30 1016.6
20260901204428 103 125 3.0 2.0 0.00 0.00 0.00 29 1017.0
20260901203927 102 326 0.0 0.0 0.00 0.00 0.00 29 1016.6
20260901203423 102 11 1.0 1.0 0.00 0.00 0.00 30 1016.6
20260901202917 102 1 1.0 1.0 0.00 0.00 0.00 30 1017.3
20260901202414 103 336 3.0 5.0 0.00 0.00 0.00 30 1017.3
20260901201909 101 308 0.0 0.0 0.00 0.00 0.00 31 1017.3
20260901201408 100 311 1.0 1.0 0.00 0.00 0.00 32 1017.3
20260901200902 100 15 3.0 5.0 0.00 0.00 0.00 31 1017.0
20260901200358 99 314 1.0 1.0 0.00 0.00 0.00 34 1017.3
20260901195856 99 288 1.0 1.0 0.00 0.00 0.00 32 1017.3
20260901195355 99 4 0.0 0.0 0.00 0.00 0.00 35 1017.3
20260901194850 98 7 1.0 1.0 0.00 0.00 0.00 33 1017.3
20260901194345 98 7 1.0 1.0 0.00 0.00 0.00 34 1017.3
20260901193842 98 200 2.0 2.0 0.00 0.00 0.00 34 1017.6
20260901193340 99 288 1.0 2.0 0.00 0.00 0.00 33 1017.6
20260901192835 100 250 0.0 0.0 0.00 0.00 0.00 33 1017.3
20260901192331 102 354 1.0 1.0 0.00 0.00 0.00 30 1017.6
20260901191827 102 302 0.0 0.0 0.00 0.00 0.00 30 1017.6